Hourly Data Report for July 15, 2020

All times are specified in Local Standard Time (LST). Add 1 hour to adjust for Daylight Saving Time where and when it is observed.

OTTAWA INTL A
ONTARIO
Current Station Operator: NAVCAN

45°19'00.000" N
75°40'00.000" W
114.90 m
6106001
71628
YOW

Download Data

Hourly Data (July 2020)
Hourly Data Report for July 15, 2020
TIME Temp Definition
°C
Dew Point Definition
°C
Rel Hum Definition
%
Wind Dir Definition
10's deg

Wind Spd Definition
km/h
Visibility Definition
km
Stn Press Definition
kPa
Hmdx Definition


Wind Chill Definition


Weather Definition


00:00 18.7 14.6 77 6 16 24.1 100.67     LegendNANA
01:00 18.0 13.5 75 7 23 24.1 100.70     Clear
02:00 16.9 13.3 79 7 18 24.1 100.74     LegendNANA
03:00 16.3 13.1 81 8 15 24.1 100.76     LegendNANA
04:00 14.7 12.3 86 5 9 24.1 100.84     Clear
05:00 14.7 12.9 89 5 13 24.1 100.88     LegendNANA
06:00 16.6 13.1 80 6 16 24.1 100.93     LegendNANA
07:00 18.9 12.8 67 8 20 24.1 100.96     Clear
08:00 20.9 13.1 61 7 17 24.1 100.95     LegendNANA
09:00 22.0 12.8 55 8 20 24.1 100.92 25   LegendNANA
10:00 23.6 13.3 52 9 16 24.1 100.92 27   Mainly Clear
11:00 25.2 13.8 49 10 14 24.1 100.94 28   LegendNANA
12:00 27.1 13.5 43 7 16 24.1 100.88 30   LegendNANA
13:00 27.7 13.7 42 7 14 24.1 100.84 31   Mostly Cloudy
14:00 27.6 13.3 41 8 18 24.1 100.83 31   LegendNANA
15:00 27.6 12.9 40 10 18 24.1 100.78 30   LegendNANA
16:00 27.8 13.2 40 8 19 24.1 100.76 31   Mostly Cloudy
17:00 27.5 13.3 41 6 18 24.1 100.76 30   LegendNANA
18:00 25.0 13.2 47 7 18 24.1 100.74 28   LegendNANA
19:00 23.6 15.0 58 9 16 24.1 100.76 28   Mostly Cloudy
20:00 22.1 14.6 62 9 16 24.1 100.74 26   LegendNANA
21:00 20.8 14.9 69 9 16 24.1 100.71 25   LegendNANA
22:00 19.6 15.0 75 7 13 24.1 100.74     Mainly Clear
23:00 19.0 14.8 77 7 15 24.1 100.76     LegendNANA

Notes on Data Quality.

Legend

  • E = Estimated
  • M = Missing
  • NA = Not Available*
  • [empty] = Indicates an unobserved value
Date modified: